CPA419 VHHH-RKSI

Flight info

Callsign CPA419
Flight time N/A
Altitude 37000
Route DALOL V631 ENVAR M750 ANLOT B1 APU DCT DRAKE Q11 WP900 L4 LIPLO Y741 ATOTI Y722 OLMEN OLMEN1Y
Aircraft B77W/H-SDE1E2E3FGHIJ2J3J4J5M1RWXY/LB1D1

Departure

Time 2026-05-07 10:06
Airport Hong Kong International Airport (VHHH)

Arrival

Time N/A
Airport Incheon International Airport (RKSI)
Time Latitude Longitude Altitude Speed Heading
2026-05-07 09:46 22.30951 113.92490 41 ft 0 kts 114°
2026-05-07 09:49 22.30954 113.92483 41 ft 2 kts 114°
2026-05-07 09:50 22.30978 113.92445 41 ft 2 kts 144°
2026-05-07 09:50 22.30991 113.92437 41 ft 2 kts 156°
2026-05-07 09:50 22.31005 113.92432 41 ft 2 kts 168°
2026-05-07 09:51 22.31020 113.92430 41 ft 2 kts 181°
2026-05-07 09:51 22.31035 113.92432 41 ft 2 kts 193°
2026-05-07 09:51 22.31048 113.92436 41 ft 1 kts 204°
2026-05-07 09:51 22.31051 113.92438 41 ft 0 kts 206°
2026-05-07 09:54 22.31049 113.92437 41 ft 1 kts 206°
2026-05-07 09:54 22.31036 113.92430 41 ft 3 kts 205°
2026-05-07 09:55 22.31007 113.92416 41 ft 5 kts 205°
2026-05-07 09:55 22.30975 113.92399 41 ft 5 kts 206°
2026-05-07 09:55 22.30944 113.92382 41 ft 5 kts 205°
2026-05-07 09:55 22.30912 113.92366 41 ft 4 kts 205°
2026-05-07 09:56 22.30876 113.92348 41 ft 6 kts 206°
2026-05-07 09:56 22.30831 113.92327 41 ft 7 kts 194°
2026-05-07 09:56 22.30775 113.92333 41 ft 8 kts 160°
2026-05-07 09:56 22.30713 113.92358 41 ft 9 kts 159°
2026-05-07 09:57 22.30647 113.92367 41 ft 10 kts 210°
2026-05-07 09:57 22.30609 113.92299 41 ft 11 kts 250°
2026-05-07 09:57 22.30600 113.92272 41 ft 11 kts 250°
2026-05-07 09:57 22.30563 113.92158 41 ft 12 kts 251°
2026-05-07 09:58 22.30525 113.92036 41 ft 13 kts 251°
2026-05-07 09:58 22.30494 113.91940 41 ft 13 kts 251°
2026-05-07 09:58 22.30462 113.91842 41 ft 14 kts 251°
2026-05-07 09:58 22.30430 113.91740 41 ft 14 kts 251°
2026-05-07 10:00 22.30255 113.91200 41 ft 15 kts 251°
2026-05-07 10:00 22.30218 113.91085 41 ft 16 kts 251°
2026-05-07 10:00 22.30181 113.90971 41 ft 16 kts 251°
2026-05-07 10:00 22.30145 113.90857 41 ft 16 kts 251°
2026-05-07 10:01 22.30120 113.90780 41 ft 16 kts 251°
2026-05-07 10:01 22.30094 113.90702 41 ft 16 kts 250°
2026-05-07 10:01 22.29995 113.90393 41 ft 16 kts 250°
2026-05-07 10:02 22.29956 113.90275 41 ft 16 kts 251°
2026-05-07 10:02 22.29919 113.90162 41 ft 15 kts 250°
2026-05-07 10:02 22.29885 113.90059 41 ft 14 kts 250°
2026-05-07 10:02 22.29853 113.89963 41 ft 13 kts 251°
2026-05-07 10:03 22.29833 113.89897 41 ft 4 kts 252°
2026-05-07 10:03 22.29822 113.89861 41 ft 6 kts 253°
2026-05-07 10:03 22.29806 113.89806 41 ft 9 kts 248°
2026-05-07 10:03 22.29753 113.89763 41 ft 11 kts 181°
2026-05-07 10:04 22.29684 113.89785 41 ft 8 kts 159°
2026-05-07 10:04 22.29628 113.89815 41 ft 5 kts 116°
2026-05-07 10:04 22.29627 113.89821 41 ft 7 kts 96°
2026-05-07 10:04 22.29643 113.89877 41 ft 0 kts 69°
2026-05-07 10:06 22.29680 113.89983 41 ft 44 kts 70°
2026-05-07 10:06 22.29870 113.90569 41 ft 118 kts 71°
2026-05-07 10:06 22.30213 113.91634 141 ft 170 kts 71°
2026-05-07 10:06 22.30612 113.92845 768 ft 178 kts 71°
2026-05-07 10:07 22.31020 113.94087 1559 ft 178 kts 74°
2026-05-07 10:07 22.31430 113.95406 2002 ft 195 kts 74°
2026-05-07 10:07 22.31843 113.96706 2419 ft 211 kts 73°
2026-05-07 10:07 22.32323 113.98198 2867 ft 228 kts 73°
2026-05-07 10:08 22.32838 113.99799 3376 ft 245 kts 72°
2026-05-07 10:08 22.33419 114.01605 3966 ft 262 kts 72°
2026-05-07 10:08 22.33877 114.03566 4632 ft 273 kts 86°
2026-05-07 10:08 22.33628 114.05626 5408 ft 278 kts 113°
2026-05-07 10:09 22.32545 114.07365 6192 ft 282 kts 138°
2026-05-07 10:09 22.30887 114.08490 6964 ft 284 kts 161°
2026-05-07 10:09 22.28969 114.08915 7790 ft 284 kts 180°
2026-05-07 10:09 22.26956 114.08829 8603 ft 287 kts 185°
2026-05-07 10:10 22.24940 114.08727 9381 ft 291 kts 184°
2026-05-07 10:10 22.22889 114.08680 10151 ft 296 kts 182°
2026-05-07 10:10 22.20785 114.08841 10631 ft 313 kts 173°
2026-05-07 10:10 22.18558 114.09397 11095 ft 332 kts 163°
2026-05-07 10:11 22.16417 114.10355 11557 ft 349 kts 154°
2026-05-07 10:11 22.14308 114.11804 12031 ft 368 kts 143°
2026-05-07 10:11 22.12403 114.13731 12514 ft 385 kts 132°
2026-05-07 10:11 22.10801 114.16139 12969 ft 401 kts 120°
2026-05-07 10:12 22.09615 114.18933 13408 ft 417 kts 110°
2026-05-07 10:12 22.08639 114.21912 14079 ft 424 kts 111°
2026-05-07 10:12 22.07395 114.24773 14857 ft 426 kts 121°
2026-05-07 10:12 22.05657 114.27420 15615 ft 429 kts 131°
2026-05-07 10:13 22.03511 114.29702 16331 ft 432 kts 142°
2026-05-07 10:13 22.01067 114.31658 17024 ft 436 kts 146°
2026-05-07 10:13 21.98551 114.33586 17694 ft 442 kts 146°
2026-05-07 10:13 21.96054 114.35510 18355 ft 447 kts 146°
2026-05-07 10:14 21.93490 114.37498 18996 ft 452 kts 146°
2026-05-07 10:14 21.90896 114.39517 19620 ft 457 kts 146°
2026-05-07 10:14 21.88530 114.41543 20216 ft 462 kts 138°
2026-05-07 10:14 21.86750 114.43552 20709 ft 467 kts 130°
2026-05-07 10:15 21.86075 114.44469 20899 ft 469 kts 127°